DAL1116 KLGB-KSLC

Flight info

Callsign DAL1116
Flight time 1h 27m
Altitude 39000
Route ZOOMM3 BEALE Q842 WINEN MLF QWENN6
Aircraft A319/M-SDE3FGHIRWY/LB1

Departure

Time 2026-05-08 03:31
Airport Long Beach International Airport (KLGB)

Arrival

Time 2026-05-08 04:59
Airport Salt Lake City International Airport (KSLC)
Time Latitude Longitude Altitude Speed Heading
2026-05-08 02:55 33.82017 -118.14598 43 ft 0 kts 90°
2026-05-08 02:59 33.82017 -118.14601 25 ft 0 kts 90°
2026-05-08 03:22 33.82017 -118.14615 43 ft 4 kts 90°
2026-05-08 03:22 33.82017 -118.14648 43 ft 4 kts 90°
2026-05-08 03:22 33.82017 -118.14674 43 ft 4 kts 105°
2026-05-08 03:23 33.82031 -118.14698 41 ft 4 kts 168°
2026-05-08 03:23 33.82056 -118.14699 41 ft 4 kts 180°
2026-05-08 03:23 33.82072 -118.14699 41 ft 0 kts 180°
2026-05-08 03:25 33.82067 -118.14699 41 ft 1 kts 180°
2026-05-08 03:25 33.82041 -118.14700 39 ft 5 kts 180°
2026-05-08 03:25 33.82001 -118.14700 43 ft 6 kts 180°
2026-05-08 03:26 33.81945 -118.14700 43 ft 10 kts 180°
2026-05-08 03:26 33.81876 -118.14706 42 ft 9 kts 215°
2026-05-08 03:26 33.81850 -118.14784 43 ft 11 kts 232°
2026-05-08 03:26 33.81777 -118.14801 43 ft 11 kts 181°
2026-05-08 03:27 33.81696 -118.14802 43 ft 12 kts 179°
2026-05-08 03:27 33.81625 -118.14764 44 ft 12 kts 135°
2026-05-08 03:27 33.81564 -118.14693 44 ft 13 kts 134°
2026-05-08 03:27 33.81500 -118.14614 42 ft 14 kts 134°
2026-05-08 03:28 33.81431 -118.14530 43 ft 14 kts 134°
2026-05-08 03:28 33.81360 -118.14442 43 ft 15 kts 134°
2026-05-08 03:28 33.81284 -118.14350 43 ft 16 kts 135°
2026-05-08 03:28 33.81205 -118.14256 43 ft 16 kts 135°
2026-05-08 03:29 33.81126 -118.14159 43 ft 16 kts 134°
2026-05-08 03:29 33.81044 -118.14059 44 ft 17 kts 135°
2026-05-08 03:29 33.80960 -118.13959 44 ft 17 kts 134°
2026-05-08 03:29 33.80874 -118.13854 43 ft 18 kts 135°
2026-05-08 03:30 33.80717 -118.13822 43 ft 14 kts 256°
2026-05-08 03:30 33.80788 -118.13940 43 ft 36 kts 315°
2026-05-08 03:31 33.81796 -118.15167 337 ft 133 kts 313°
2026-05-08 03:31 33.83074 -118.16847 1364 ft 139 kts 310°
2026-05-08 03:32 33.83589 -118.17839 1822 ft 144 kts 278°
2026-05-08 03:32 33.83347 -118.18990 2338 ft 149 kts 230°
2026-05-08 03:32 33.82459 -118.19613 2883 ft 154 kts 198°
2026-05-08 03:32 33.81393 -118.19893 3354 ft 165 kts 193°
2026-05-08 03:33 33.80184 -118.20123 3644 ft 187 kts 191°
2026-05-08 03:33 33.78814 -118.20368 3930 ft 211 kts 191°
2026-05-08 03:33 33.77276 -118.20641 4272 ft 235 kts 191°
2026-05-08 03:33 33.75570 -118.20940 4707 ft 259 kts 191°
2026-05-08 03:34 33.73711 -118.21260 5249 ft 277 kts 191°
2026-05-08 03:34 33.71783 -118.21594 6091 ft 282 kts 191°
2026-05-08 03:34 33.69823 -118.21943 6963 ft 286 kts 191°
2026-05-08 03:34 33.67840 -118.22313 7824 ft 290 kts 191°
2026-05-08 03:35 33.65833 -118.22702 8708 ft 295 kts 189°
2026-05-08 03:35 33.63770 -118.22611 9558 ft 302 kts 166°
2026-05-08 03:35 33.61877 -118.21535 10392 ft 305 kts 141°
2026-05-08 03:35 33.60466 -118.19612 10945 ft 318 kts 117°
2026-05-08 03:36 33.59856 -118.17035 11214 ft 338 kts 91°
2026-05-08 03:36 33.60316 -118.14239 11643 ft 350 kts 64°
2026-05-08 03:36 33.61812 -118.11939 12316 ft 355 kts 38°
2026-05-08 03:36 33.63985 -118.10522 13046 ft 359 kts 22°
2026-05-08 03:37 33.66623 -118.09127 13886 ft 363 kts 26°
2026-05-08 03:37 33.68900 -118.07759 14543 ft 366 kts 28°
2026-05-08 03:37 33.71134 -118.06351 15217 ft 369 kts 28°
2026-05-08 03:37 33.73412 -118.04902 15882 ft 372 kts 28°
2026-05-08 03:38 33.75719 -118.03452 16556 ft 375 kts 27°
2026-05-08 03:38 33.78053 -118.02015 17232 ft 378 kts 27°
2026-05-08 03:38 33.80412 -118.00588 17909 ft 381 kts 26°
2026-05-08 03:38 33.82797 -117.99159 18553 ft 385 kts 26°
2026-05-08 03:39 33.85205 -117.97723 19144 ft 387 kts 26°
2026-05-08 03:39 33.86810 -117.96766 19536 ft 389 kts 26°
2026-05-08 03:39 33.89250 -117.95311 20128 ft 392 kts 26°
2026-05-08 03:39 33.91596 -117.93619 20750 ft 393 kts 36°
2026-05-08 03:40 33.93707 -117.91674 21486 ft 377 kts 37°
2026-05-08 03:40 33.95837 -117.89717 21658 ft 393 kts 37°
2026-05-08 03:40 33.98040 -117.87701 22053 ft 401 kts 37°
2026-05-08 03:40 34.00273 -117.85659 22576 ft 404 kts 37°
2026-05-08 03:41 34.02524 -117.83603 23106 ft 408 kts 37°
2026-05-08 03:41 34.04793 -117.81526 23615 ft 411 kts 37°
2026-05-08 03:41 34.07078 -117.79431 24047 ft 413 kts 37°
2026-05-08 03:41 34.09261 -117.77157 24471 ft 416 kts 45°
2026-05-08 03:42 34.11154 -117.74499 24887 ft 419 kts 50°
2026-05-08 03:42 34.12999 -117.71762 25313 ft 421 kts 50°
2026-05-08 03:42 34.14829 -117.69042 25710 ft 424 kts 50°
2026-05-08 03:42 34.16694 -117.66270 26115 ft 426 kts 50°
2026-05-08 03:43 34.18568 -117.63485 26508 ft 429 kts 50°
2026-05-08 03:43 34.20450 -117.60685 26907 ft 431 kts 50°
2026-05-08 03:43 34.22350 -117.57858 27294 ft 433 kts 50°
2026-05-08 03:43 34.24253 -117.55025 27675 ft 436 kts 50°
2026-05-08 03:44 34.26167 -117.52173 28046 ft 438 kts 50°
2026-05-08 03:44 34.28093 -117.49297 28403 ft 440 kts 50°
2026-05-08 03:44 34.30027 -117.46409 28759 ft 443 kts 50°
2026-05-08 03:44 34.31972 -117.43506 29097 ft 445 kts 50°
2026-05-08 03:45 34.33925 -117.40588 29463 ft 447 kts 50°
2026-05-08 03:45 34.35882 -117.37660 29816 ft 449 kts 50°
2026-05-08 03:45 34.37832 -117.34742 30133 ft 452 kts 50°
2026-05-08 03:45 34.39835 -117.31744 30485 ft 452 kts 50°
2026-05-08 03:46 34.41780 -117.28825 30897 ft 451 kts 50°
2026-05-08 03:46 34.43746 -117.25869 31314 ft 450 kts 50°
2026-05-08 03:46 34.45706 -117.22924 31732 ft 448 kts 50°
2026-05-08 03:46 34.47665 -117.19981 32156 ft 447 kts 50°
2026-05-08 03:47 34.49613 -117.17051 32588 ft 446 kts 50°
2026-05-08 03:47 34.51554 -117.14127 33005 ft 445 kts 50°
2026-05-08 03:47 34.53492 -117.11201 33419 ft 443 kts 50°
2026-05-08 03:47 34.55428 -117.08293 33843 ft 442 kts 49°
2026-05-08 03:48 34.57381 -117.05418 34217 ft 441 kts 49°
2026-05-08 03:48 34.59343 -117.02575 34582 ft 440 kts 49°
2026-05-08 03:48 34.61319 -116.99729 34912 ft 439 kts 48°
2026-05-08 03:48 34.63284 -116.96900 35267 ft 438 kts 48°
2026-05-08 03:49 34.65239 -116.94072 35611 ft 437 kts 48°
2026-05-08 03:49 34.67185 -116.91240 35934 ft 436 kts 49°
2026-05-08 03:49 34.69120 -116.88407 36271 ft 435 kts 49°
2026-05-08 03:49 34.71050 -116.85574 36602 ft 435 kts 49°
2026-05-08 03:50 34.72974 -116.82745 36919 ft 434 kts 49°
2026-05-08 03:50 34.74895 -116.79923 37241 ft 433 kts 48°
2026-05-08 03:50 34.76820 -116.77099 37567 ft 432 kts 48°
2026-05-08 03:50 34.78733 -116.74291 37890 ft 431 kts 48°
2026-05-08 03:51 34.80642 -116.71486 38195 ft 430 kts 48°
2026-05-08 03:51 34.82549 -116.68682 38468 ft 430 kts 49°
2026-05-08 03:51 34.84454 -116.65878 38710 ft 430 kts 48°
2026-05-08 03:51 34.86345 -116.63124 38878 ft 430 kts 47°
2026-05-08 03:52 34.88329 -116.60380 38938 ft 434 kts 46°
2026-05-08 03:52 34.92484 -116.54928 38926 ft 443 kts 45°
2026-05-08 03:53 34.96745 -116.49368 38914 ft 453 kts 45°
2026-05-08 03:53 35.01045 -116.43631 38894 ft 462 kts 46°
2026-05-08 03:54 35.05279 -116.37916 38891 ft 447 kts 46°
2026-05-08 03:54 35.09403 -116.32355 38889 ft 438 kts 46°
2026-05-08 03:55 35.13491 -116.26854 38883 ft 437 kts 46°
2026-05-08 03:55 35.17577 -116.21353 38879 ft 436 kts 46°
2026-05-08 03:56 35.21624 -116.15885 38883 ft 436 kts 46°
2026-05-08 03:56 35.25692 -116.10382 38897 ft 436 kts 46°
2026-05-08 03:57 35.29754 -116.04876 38904 ft 436 kts 46°
2026-05-08 03:57 35.33812 -115.99366 38920 ft 435 kts 46°
2026-05-08 03:58 35.37863 -115.93842 38926 ft 435 kts 46°
2026-05-08 03:58 35.41919 -115.88318 38936 ft 435 kts 46°
2026-05-08 03:59 35.45970 -115.82796 38951 ft 436 kts 46°
2026-05-08 03:59 35.49993 -115.77298 38954 ft 436 kts 46°
2026-05-08 04:00 35.54045 -115.71753 38964 ft 436 kts 46°
2026-05-08 04:00 35.58091 -115.66194 38964 ft 436 kts 46°
2026-05-08 04:01 35.62142 -115.60634 38969 ft 436 kts 46°
2026-05-08 04:01 35.66187 -115.55067 38970 ft 437 kts 46°
2026-05-08 04:02 35.70233 -115.49492 38969 ft 437 kts 46°
2026-05-08 04:02 35.74281 -115.43908 38966 ft 437 kts 46°
2026-05-08 04:03 35.78342 -115.38312 38974 ft 437 kts 46°
2026-05-08 04:03 35.84386 -115.29946 38971 ft 437 kts 46°
2026-05-08 04:04 35.88417 -115.24336 38976 ft 437 kts 46°
2026-05-08 04:04 35.92449 -115.18725 38981 ft 436 kts 46°
2026-05-08 04:05 35.96467 -115.13127 38982 ft 435 kts 46°
2026-05-08 04:05 36.00481 -115.07530 38985 ft 435 kts 46°
2026-05-08 04:06 36.04489 -115.01929 38947 ft 435 kts 46°
2026-05-08 04:06 36.08491 -114.96328 38931 ft 435 kts 46°
2026-05-08 04:07 36.12490 -114.90720 38874 ft 434 kts 46°
2026-05-08 04:07 36.16493 -114.85122 38866 ft 434 kts 44°
2026-05-08 04:08 36.21205 -114.80658 38860 ft 429 kts 26°
2026-05-08 04:08 36.26474 -114.77197 38846 ft 429 kts 26°
2026-05-08 04:09 36.31739 -114.73707 38835 ft 429 kts 26°
2026-05-08 04:09 36.36998 -114.70201 38821 ft 429 kts 27°
2026-05-08 04:10 36.42262 -114.66701 38809 ft 429 kts 26°
2026-05-08 04:10 36.47532 -114.63205 38803 ft 429 kts 26°
2026-05-08 04:11 36.52793 -114.59696 38809 ft 429 kts 26°
2026-05-08 04:11 36.58058 -114.56175 38815 ft 429 kts 26°
2026-05-08 04:12 36.63319 -114.52659 38820 ft 429 kts 26°
2026-05-08 04:12 36.68531 -114.49167 38826 ft 428 kts 26°
2026-05-08 04:13 36.73725 -114.45550 38839 ft 428 kts 29°
2026-05-08 04:13 36.78766 -114.41598 38843 ft 427 kts 31°
2026-05-08 04:14 36.83747 -114.37558 38849 ft 426 kts 30°
2026-05-08 04:14 36.88743 -114.33574 38850 ft 425 kts 30°
2026-05-08 04:15 36.93760 -114.29648 38854 ft 425 kts 29°
2026-05-08 04:15 36.98743 -114.25754 38858 ft 425 kts 30°
2026-05-08 04:16 37.03748 -114.21811 38864 ft 425 kts 30°
2026-05-08 04:16 37.08746 -114.17854 38868 ft 425 kts 30°
2026-05-08 04:17 37.13743 -114.13882 38870 ft 425 kts 30°
2026-05-08 04:17 37.18747 -114.09914 38873 ft 426 kts 30°
2026-05-08 04:18 37.23754 -114.05937 38877 ft 426 kts 30°
2026-05-08 04:18 37.28769 -114.01952 38881 ft 427 kts 30°
2026-05-08 04:19 37.33786 -113.97958 38791 ft 428 kts 30°
2026-05-08 04:19 37.36304 -113.95950 38553 ft 428 kts 30°
2026-05-08 04:19 37.38818 -113.93941 38282 ft 428 kts 30°
2026-05-08 04:20 37.41329 -113.91935 38016 ft 428 kts 30°
2026-05-08 04:20 37.43843 -113.89924 37743 ft 428 kts 30°
2026-05-08 04:20 37.46360 -113.87908 37477 ft 429 kts 30°
2026-05-08 04:20 37.48876 -113.85891 37212 ft 429 kts 30°
2026-05-08 04:21 37.51392 -113.83872 36953 ft 429 kts 30°
2026-05-08 04:21 37.53911 -113.81850 36695 ft 429 kts 30°
2026-05-08 04:21 37.56398 -113.79860 36445 ft 430 kts 30°
2026-05-08 04:21 37.58927 -113.77837 36194 ft 430 kts 30°
2026-05-08 04:22 37.61450 -113.75813 35805 ft 430 kts 30°
2026-05-08 04:22 37.63976 -113.73780 35417 ft 430 kts 30°
2026-05-08 04:22 37.66500 -113.71744 35036 ft 431 kts 30°
2026-05-08 04:22 37.69025 -113.69706 34872 ft 430 kts 30°
2026-05-08 04:23 37.74076 -113.65625 34915 ft 431 kts 30°
2026-05-08 04:23 37.79123 -113.61544 34915 ft 431 kts 30°
2026-05-08 04:24 37.84174 -113.57462 34913 ft 431 kts 30°
2026-05-08 04:24 37.89210 -113.53358 34917 ft 430 kts 30°
2026-05-08 04:25 37.94150 -113.49068 34914 ft 433 kts 37°
2026-05-08 04:25 37.98651 -113.43977 34914 ft 433 kts 38°
2026-05-08 04:26 38.03120 -113.38916 34913 ft 433 kts 38°
2026-05-08 04:26 38.07616 -113.33816 34909 ft 433 kts 38°
2026-05-08 04:27 38.12106 -113.28717 34912 ft 433 kts 38°
2026-05-08 04:27 38.16593 -113.23609 34935 ft 433 kts 38°
2026-05-08 04:28 38.21077 -113.18495 34967 ft 433 kts 38°
2026-05-08 04:28 38.25547 -113.13377 34991 ft 433 kts 38°
2026-05-08 04:29 38.29995 -113.08282 35023 ft 433 kts 38°
2026-05-08 04:29 38.34483 -113.03192 35045 ft 431 kts 34°
2026-05-08 04:30 38.39616 -112.99422 35047 ft 423 kts 19°
2026-05-08 04:30 38.45054 -112.96531 35046 ft 424 kts 19°
2026-05-08 04:31 38.49580 -112.94121 35046 ft 424 kts 19°
2026-05-08 04:31 38.55023 -112.91210 35020 ft 424 kts 19°
2026-05-08 04:32 38.60466 -112.88298 34991 ft 424 kts 19°
2026-05-08 04:32 38.65908 -112.85390 34957 ft 424 kts 19°
2026-05-08 04:33 38.71357 -112.82463 34932 ft 424 kts 19°
2026-05-08 04:33 38.76765 -112.79551 34914 ft 424 kts 19°
2026-05-08 04:34 38.82205 -112.76625 34926 ft 424 kts 19°
2026-05-08 04:34 38.87639 -112.73701 34949 ft 423 kts 19°
2026-05-08 04:35 38.93067 -112.70765 34973 ft 423 kts 19°
2026-05-08 04:35 38.98495 -112.67822 34980 ft 423 kts 19°
2026-05-08 04:36 39.03919 -112.64889 34989 ft 423 kts 19°
2026-05-08 04:36 39.06635 -112.63420 34807 ft 423 kts 19°
2026-05-08 04:36 39.09348 -112.61950 34567 ft 423 kts 19°
2026-05-08 04:37 39.12058 -112.60479 34328 ft 423 kts 19°
2026-05-08 04:37 39.14768 -112.59001 34071 ft 423 kts 19°
2026-05-08 04:37 39.17489 -112.57518 33074 ft 427 kts 19°
2026-05-08 04:37 39.20244 -112.56022 32078 ft 431 kts 20°
2026-05-08 04:38 39.23021 -112.54509 31057 ft 435 kts 20°
2026-05-08 04:38 39.25823 -112.52979 29956 ft 440 kts 20°
2026-05-08 04:38 39.28657 -112.51427 28697 ft 445 kts 20°
2026-05-08 04:38 39.31481 -112.49876 27549 ft 447 kts 21°
2026-05-08 04:39 39.34306 -112.48283 26885 ft 438 kts 21°
2026-05-08 04:39 39.37073 -112.46689 26092 ft 433 kts 22°
2026-05-08 04:39 39.39807 -112.45100 25327 ft 428 kts 22°
2026-05-08 04:39 39.42510 -112.43526 24579 ft 424 kts 22°
2026-05-08 04:40 39.45186 -112.41973 23844 ft 420 kts 22°
2026-05-08 04:40 39.47881 -112.40420 23018 ft 417 kts 22°
2026-05-08 04:40 39.50515 -112.38908 22325 ft 410 kts 22°
2026-05-08 04:40 39.53106 -112.37422 21638 ft 405 kts 21°
2026-05-08 04:41 39.55668 -112.35950 20985 ft 400 kts 21°
2026-05-08 04:41 39.58196 -112.34493 20368 ft 395 kts 21°
2026-05-08 04:41 39.60697 -112.33049 19756 ft 392 kts 21°
2026-05-08 04:41 39.63171 -112.31622 19190 ft 388 kts 21°
2026-05-08 04:42 39.65631 -112.30200 18632 ft 385 kts 21°
2026-05-08 04:42 39.68069 -112.28788 18088 ft 382 kts 21°
2026-05-08 04:42 39.70488 -112.27387 17529 ft 379 kts 21°
2026-05-08 04:42 39.72874 -112.26004 17028 ft 374 kts 21°
2026-05-08 04:43 39.75239 -112.24730 16835 ft 362 kts 18°
2026-05-08 04:43 39.77645 -112.23574 16583 ft 367 kts 17°
2026-05-08 04:43 39.80026 -112.22499 16328 ft 356 kts 16°
2026-05-08 04:43 39.82332 -112.21481 16087 ft 345 kts 16°
2026-05-08 04:44 39.84574 -112.20487 15833 ft 336 kts 16°
2026-05-08 04:44 39.86753 -112.19507 15590 ft 327 kts 16°
2026-05-08 04:44 39.88876 -112.18541 15348 ft 319 kts 16°
2026-05-08 04:44 39.90949 -112.17587 15103 ft 313 kts 17°
2026-05-08 04:45 39.92977 -112.16649 14865 ft 306 kts 17°
2026-05-08 04:45 39.94968 -112.15725 14630 ft 302 kts 16°
2026-05-08 04:45 39.96935 -112.14811 14393 ft 299 kts 16°
2026-05-08 04:45 39.98890 -112.13904 14156 ft 298 kts 17°
2026-05-08 04:46 40.00843 -112.12998 13922 ft 297 kts 17°
2026-05-08 04:46 40.02766 -112.12104 13694 ft 297 kts 17°
2026-05-08 04:46 40.04707 -112.11197 13432 ft 296 kts 17°
2026-05-08 04:46 40.06641 -112.10294 13176 ft 295 kts 17°
2026-05-08 04:47 40.08572 -112.09393 12945 ft 294 kts 17°
2026-05-08 04:47 40.10497 -112.08494 12691 ft 293 kts 17°
2026-05-08 04:47 40.12410 -112.07600 12441 ft 292 kts 17°
2026-05-08 04:47 40.14318 -112.06709 12193 ft 291 kts 17°
2026-05-08 04:48 40.16222 -112.05821 11948 ft 290 kts 17°
2026-05-08 04:48 40.18119 -112.04936 11704 ft 289 kts 17°
2026-05-08 04:48 40.20006 -112.04051 11458 ft 287 kts 17°
2026-05-08 04:48 40.21888 -112.03170 11220 ft 287 kts 17°
2026-05-08 04:49 40.23763 -112.02292 11034 ft 286 kts 17°
2026-05-08 04:49 40.25635 -112.01416 10972 ft 285 kts 17°
2026-05-08 04:49 40.27504 -112.00541 10986 ft 286 kts 17°
2026-05-08 04:49 40.29382 -111.99662 10985 ft 286 kts 17°
2026-05-08 04:50 40.31257 -111.98787 10981 ft 284 kts 17°
2026-05-08 04:50 40.33068 -111.97936 10981 ft 269 kts 17°
2026-05-08 04:50 40.34758 -111.97137 10984 ft 255 kts 17°
2026-05-08 04:50 40.36385 -111.96367 10979 ft 243 kts 17°
2026-05-08 04:51 40.37966 -111.95624 10978 ft 240 kts 17°
2026-05-08 04:51 40.39543 -111.94905 10987 ft 239 kts 15°
2026-05-08 04:51 40.41112 -111.94289 11000 ft 236 kts 13°
2026-05-08 04:51 40.42666 -111.93720 10995 ft 222 kts 12°
2026-05-08 04:52 40.44156 -111.93448 10910 ft 213 kts 357°
2026-05-08 04:52 40.45597 -111.93610 10653 ft 210 kts 352°
2026-05-08 04:52 40.47085 -111.93799 10215 ft 216 kts 353°
2026-05-08 04:52 40.48604 -111.93980 9769 ft 221 kts 353°
2026-05-08 04:53 40.50133 -111.94156 9426 ft 217 kts 353°
2026-05-08 04:53 40.51601 -111.94324 9161 ft 205 kts 353°
2026-05-08 04:53 40.52987 -111.94484 8867 ft 195 kts 353°
2026-05-08 04:53 40.54306 -111.94636 8616 ft 188 kts 353°
2026-05-08 04:54 40.55601 -111.94785 8371 ft 186 kts 353°
2026-05-08 04:54 40.56890 -111.94934 8125 ft 186 kts 353°
2026-05-08 04:54 40.58177 -111.95082 7881 ft 185 kts 353°
2026-05-08 04:54 40.59465 -111.95231 7642 ft 187 kts 353°
2026-05-08 04:55 40.60763 -111.95381 7402 ft 188 kts 353°
2026-05-08 04:55 40.62069 -111.95532 7164 ft 189 kts 354°
2026-05-08 04:55 40.63383 -111.95683 6922 ft 190 kts 354°
2026-05-08 04:55 40.64702 -111.95836 6723 ft 191 kts 354°
2026-05-08 04:56 40.66013 -111.95987 6535 ft 185 kts 354°
2026-05-08 04:56 40.67256 -111.96130 6349 ft 171 kts 354°
2026-05-08 04:56 40.68377 -111.96259 6161 ft 154 kts 353°
2026-05-08 04:56 40.69413 -111.96379 5972 ft 146 kts 353°
2026-05-08 04:57 40.70417 -111.96496 5744 ft 144 kts 353°
2026-05-08 04:57 40.71412 -111.96611 5531 ft 142 kts 354°
2026-05-08 04:57 40.72398 -111.96726 5306 ft 142 kts 354°
2026-05-08 04:57 40.73384 -111.96840 5067 ft 143 kts 355°
2026-05-08 04:58 40.74377 -111.96960 4873 ft 144 kts 355°
2026-05-08 04:58 40.75384 -111.97070 4675 ft 144 kts 356°
2026-05-08 04:58 40.76392 -111.97195 4494 ft 145 kts 358°
2026-05-08 04:58 40.77383 -111.97309 4304 ft 145 kts 357°
2026-05-08 04:59 40.78345 -111.97418 4231 ft 121 kts 355°
2026-05-08 04:59 40.79011 -111.97488 4229 ft 71 kts 354°
2026-05-08 04:59 40.79332 -111.97533 4229 ft 19 kts 351°
2026-05-08 04:59 40.79442 -111.97580 4230 ft 19 kts 334°
2026-05-08 05:00 40.79555 -111.97671 4231 ft 18 kts 322°
2026-05-08 05:00 40.79616 -111.97729 4231 ft 6 kts 325°
2026-05-08 05:00 40.79656 -111.97767 4232 ft 8 kts 325°
2026-05-08 05:00 40.79677 -111.97831 4233 ft 9 kts 270°
2026-05-08 05:01 40.79638 -111.97880 4233 ft 10 kts 180°
2026-05-08 05:01 40.79557 -111.97873 4233 ft 13 kts 175°
2026-05-08 05:01 40.79452 -111.97857 4233 ft 17 kts 174°
2026-05-08 05:01 40.79324 -111.97842 4233 ft 21 kts 175°
2026-05-08 05:02 40.79169 -111.97827 4234 ft 24 kts 175°
2026-05-08 05:02 40.78995 -111.97808 4234 ft 27 kts 175°
2026-05-08 05:02 40.78808 -111.97786 4234 ft 24 kts 174°
2026-05-08 05:02 40.78754 -111.97800 4232 ft 8 kts 235°
2026-05-08 05:03 40.78747 -111.97886 4234 ft 11 kts 269°
2026-05-08 05:03 40.78738 -111.97998 4232 ft 13 kts 262°
2026-05-08 05:03 40.78731 -111.98118 4234 ft 13 kts 265°
2026-05-08 05:03 40.78723 -111.98243 4234 ft 14 kts 265°
2026-05-08 05:04 40.78715 -111.98374 4234 ft 15 kts 265°
2026-05-08 05:04 40.78704 -111.98511 4234 ft 15 kts 265°
2026-05-08 05:04 40.78696 -111.98654 4234 ft 16 kts 266°
2026-05-08 05:04 40.78684 -111.98802 4234 ft 17 kts 266°
2026-05-08 05:05 40.78675 -111.98955 4234 ft 12 kts 264°
2026-05-08 05:05 40.78673 -111.98973 4234 ft 2 kts 264°
2026-05-08 05:05 40.78671 -111.98996 4234 ft 4 kts 264°
2026-05-08 05:05 40.78645 -111.99018 4233 ft 7 kts 187°
2026-05-08 05:06 40.78595 -111.99012 4234 ft 8 kts 174°
2026-05-08 05:06 40.78583 -111.99011 4234 ft 0 kts 175°